sat.trackr.live / text

‹ back to catalog

ONEWEB-0356

NORAD 49283 · 2021-090E

PAYLOAD ACTIVE UNKNOWN

§ Identity

Operator
Country
UK
Launch date
2021-10-14
Launch site
VOSTO
Launch vehicle
Mass (kg)
RCS (m²)

Purposes: comms

External: N2YO · Heavens-Above · Gunter

§ Orbital elements

Epoch: 2026-09-19T22:08:03.679584Z

Period
109.03 min
Inclination
87.9122°
Eccentricity
0.0003524
Mean motion
13.20767107 rev/d
Perigee alt
1,179.1 km
Apogee alt
1,184.5 km
Semi-major
7,559.9 km
B*
1.8996e-3
RAAN
255.5352°
Arg perigee
95.6767°
Mean anomaly
264.4768°
Rev number
24,233

§ Raw data

ONEWEB-03561 49283U 21090E   26262.92226481  .00000785  00000+0  18996-2 0  99942 49283  87.9122 255.5352 0003524  95.6767 264.4768 13.20767107242333

JSON: /api/v1/satellites/49283 · /tle

For live sub-satellite position, see the globe view (requires WebGL).

§ Visibility from observer

Set your observer location to see the next 7 days of passes ≥ 10°. The values pass through the URL so the page stays shareable.

No JS? Fill the form by hand. The geolocation button needs JavaScript.